Wales, AK

5:59 PM AKST on February 11, 2016 (GMT -0900)
Tin City LRRS | | Change Station
CLOSE
Current Station
Airport
Location: Tin City,
Elevation: 272 ft
Nearby Weather Stations

Elev 272 ft 65.56 °N, 167.92 °W | Updated 4 minutes ago

Light Snow Showers
Light Showers Snow Mist
-2 °F
Feels Like -27 °F
N
28
Wind Variable Wind from NNE
Gusts 38 mph

Today
High -- | Low -- °F
--% Chance of Precip.
Yesterday
High -- | Low -- °F
Precip. -- in
Pressure 29.81 in
Visibility 0.8 miles
Clouds Overcast 800 ft
Windchill -27 °F
Dew Point -4 °F
Humidity 88%
Rainfall 0.00 in
Snow Depth Not available.
10:29 AM 6:23 PM
Waxing Crescent, 16% visible
METAR PATC 120255Z AUTO 02024G33KT 3/4SM -SHSN BR OVC008 M19/M20 A2977 RMK AO2 SHSNB0028 SLP092 P0000 60000 T11871202 58005
Pressure 29.81 in
Visibility 0.8 miles
Clouds Overcast 800 ft
Windchill -27 °F
Dew Point -4 °F
Humidity 88%
Rainfall 0.00 in
Snow Depth Not available.
10:29 AM 6:23 PM
Waxing Crescent, 16% visible
METAR PATC 120255Z AUTO 02024G33KT 3/4SM -SHSN BR OVC008 M19/M20 A2977 RMK AO2 SHSNB0028 SLP092 P0000 60000 T11871202 58005

10-Day Weather Forecast

Almanac

Astronomy

Feb. 11, 2016 Rise Set
Actual Time
Civil Twilight
Nautical Twilight
Astronomical Twilight
Moon
Length of Visible Light
Length of Day
Tomorrow will be .
, % of the Moon is Illuminated

Today's Extremes

State Highs State Lows

Community

WunderPhotos

Upload Photos

1,892,226 photos uploaded!

WunderBlog® & News

Nearby

Air Quality

  Air Quality AQ Index Pollutant
Not available.

Snow Depth

Station Depth Elevation

Earthquake Activity

City Distance Mag. Time & Date
Minimum magnitude displayed is 2.5.

Coastal Water Temperatures

Place Temperature

Stations

Nearby Weather Stations

Station Location Temp. Windchill Dew Point Humidity Wind Precip. Elev Updated Type
                   

Watches & Warnings

There are currently no watches in effect.